Regional Weather Roundup
Issued by NWS

Home | Current Version | Previous Version | Graphics & Text | Print | Product List | Glossary On
Versions: 1 2 3 4 5 6 7 8 9 10 11 12 13 14 15 16 17 18 19 20 21 22 23 24 25 26 27 28 29 30 31 32 33 34 35 36 37 38 39 40 41 42 43 44 45 46 47 48 49 50
000
ASUS45 KBOU 171807
RWRCO

WEATHER ROUNDUP FOR COLORADO
NATIONAL WEATHER SERVICE DENVER/BOULDER CO
1200 PM MDT FRI APR 17 2015

NOTE: "FAIR" INDICATES FEW OR NO CLOUDS BELOW 12000 FEET WITH NO
SIGNIFICANT WEATHER AND/OR OBSTRUCTIONS TO VISIBILITY.

COZ001>005-013-030-031-171900-
...NORTHWEST COLORADO...

CITY           SKY/WX    TMP DP  RH WIND       PRES   REMARKS
CRAIG          CLOUDY    48  36  63 N6        29.95F
HAYDEN         CLOUDY    43  34  70 S5        29.95F
MEEKER         CLOUDY    42  37  82 MISG      29.93F
MOUNT WERNER   NOT AVBL
STEAMBOAT SPGS CLOUDY    45  28  52 SW8       29.94S
WALDEN         CLOUDY    34  28  80 NW15G23   30.02R WCI  24
$$

COZ006>008-011-171900-
...WEST CENTRAL VALLEYS...

CITY           SKY/WX    TMP DP  RH WIND       PRES   REMARKS
GRAND JUNCTION LGT SNOW  33  33 100 NE5       30.03S FOG     WCI  29
MONTROSE       LGT SNOW  37  30  75 SE10      30.06R
EAGLE          LGT SNOW  37  37 100 W7        29.98F FOG
RIFLE          LGT SNOW  34  32  92 NW3       30.01R VSB 3/4
DELTA          LGT RAIN  38  35  89 NE3       30.05F
NUCLA          CLOUDY    36  30  80 CALM      30.09S
$$

COZ017>023-064>068-171900-
...SOUTHWEST COLORADO...

CITY           SKY/WX    TMP DP  RH WIND       PRES   REMARKS
DURANGO        PTSUNNY   41  10  28 S9G16     30.03S
CORTEZ         CLOUDY    40  23  50 S14       30.08R
PAGOSA SPRINGS PTSUNNY   40   2  21 S15G21    30.02S
TELLURIDE      CLOUDY    27  19  71 CALM      30.03S
WOLF CREEK PAS CLOUDY    18   1  49 W10G21    30.03R WCI   6
$$

COZ009-010-012-014-032>034-037-058>063-171900-
...CENTRAL COLORADO...

CITY           SKY/WX    TMP DP  RH WIND       PRES   REMARKS
ASPEN          HVY SNOW  29  29 100 CALM      29.97R VSB 1/4
BUENA VISTA    LGT SNOW  29  24  82 SE8       30.02F WCI  21
COPPER MTN     HVY SNOW  25  19  80 E54G66    29.88F WCI   3
BERTHOUD PASS  HVY SNOW  19  12  73 MISG      30.03R VSB<1/4
COTTONWOOD PAS SNOW      28  25  86 CALM      30.00S VSB<1/4
GUNNISON       CLOUDY    28  23  80 E9        30.05S WCI  20
KREMMLING      LGT RAIN  36  32  87 N7        29.98F
LEADVILLE      SNOW      20  18  92 S5        29.98S VSB 1/2 WCI  13
MONARCH PASS   CLOUDY    14  12  92 MISG      30.07F
SALIDA         CLOUDY    32  29  92 CALM      30.09F VSB 3/4
SUNLIGHT       FOG      N/A N/A N/A NW3       30.02S VSB 1
WILKERSON PASS CLOUDY   N/A N/A N/A S9        30.02F
$$

COZ069>075-171900-
...SAN LUIS VALLEY/SANGRE DE CRISTO MOUNTAINS...

CITY           SKY/WX    TMP DP  RH WIND       PRES   REMARKS
ALAMOSA        MOSUNNY   40  10  29 E3        30.00F
LA VETA PASS   MOSUNNY   30  18  59 S7        30.01S WCI  23
SAGUACHE       PTSUNNY   32  25  74 N3        30.03S
$$

COZ035-036-038>040-171900-
...NORTHERN COLORADO FRONT RANGE...

CITY           SKY/WX    TMP DP  RH WIND       PRES   REMARKS
DENVER INTL AP LGT RAIN  38  37  97 SW17      29.96F
DMNS CITY PARK   N/A     38  38  97 W5        29.99F
AURORA         PTSUNNY   37  37 100 SW5       29.99F
FRONT RANGE AP LGT RAIN  39  39 100 SW13      29.98F
ERIE MUNI ARPT LGT RAIN  40  40  98 N16       29.99F
BOULDER MUN AP RAIN      39  39 100 N10       30.00F
CENTENNIAL     PTSUNNY   38  38 100 W6        29.99F FOG
BROOMFIELD     NOT AVBL
FORT COLLINS   CLOUDY    39  37  93 N13       30.03S
LONGMONT       CLOUDY    43  40  87 N15G24    30.02F
$$

COZ041-046-047-076>085-087-088-171900-
...PIKES PEAK/PALMER DIVIDE AND SOUTHERN FOOTHILLS...

CITY           SKY/WX    TMP DP  RH WIND       PRES   REMARKS
COLO. SPRINGS  PTSUNNY   46  33  60 SE10      29.99F
A. F. ACADEMY  PTSUNNY   41  29  60 SE10      29.97F
ELLICOTT       MOSUNNY  N/A N/A N/A SW15G21   29.98F
FALCON         MOSUNNY   42  32  69 CALM      30.00F
FORT CARSON    MOSUNNY   47  33  58 SE10G17   29.97F
LIMON          PTSUNNY   51  42  71 S16G26    29.99F
MONUMENT HILL  PTSUNNY   41  32  70 CALM      29.99S
TRINIDAD       SUNNY     51  19  28 S8        29.97F
$$

COZ042>045-048>051-090-091-171900-
...NORTHEAST COLORADO...

CITY           SKY/WX    TMP DP  RH WIND       PRES   REMARKS
GREELEY ARPT   CLOUDY    46  43  87 NE13      29.98F
AKRON          LGT RAIN  48  48 100 E21G30    29.99F FOG
BURLINGTON     CLOUDY    53  50  89 SE15      30.01S
WRAY           CLOUDY    54  51  90 E16G22    30.01F
STERLING       LGT RAIN  52  50  93 SE16      30.00F
HOLYOKE        CLOUDY    54  52  94 E18G24    30.03F FOG
FORT MORGAN    LGT RAIN  51  49  93 E25G31    29.98F
$$

COZ086-089-092>099-171900-
...SOUTHEAST COLORADO...

CITY           SKY/WX    TMP DP  RH WIND       PRES   REMARKS
PUEBLO         SUNNY     49  36  61 NW6       29.98F
LA JUNTA       MOSUNNY   57  43  59 VRB7      29.96F
LAMAR          SUNNY     58  49  72 N3        29.94F
SPRINGFIELD      N/A     62  34  35 S21       29.96F
$$



USA.gov is the U.S. government's official web portal to all federal, state and local government web resources and services.